NDF4MA LGLM-LGIR

Flight info

Callsign NDF4MA
Flight time 0h 51m
Altitude 31000
Route KOROS2B KOROS UG33 NEVRA UT514 XAVIS XAVIS1A
Aircraft A321/M-SDE3FGHIRWY/LB1

Departure

Time 2026-05-06 12:19
Airport Limnos Airport (LGLM)

Arrival

Time 2026-05-06 13:11
Airport Heraklion International Nikos Kazantzakis Airport (LGIR)
Time Latitude Longitude Altitude Speed Heading
2026-05-06 12:11 39.92367 25.23683 16 ft 0 kts 193°
2026-05-06 12:15 39.92355 25.23678 16 ft 3 kts 183°
2026-05-06 12:16 39.92332 25.23700 16 ft 4 kts 118°
2026-05-06 12:16 39.92326 25.23734 16 ft 3 kts 103°
2026-05-06 12:16 39.92305 25.23796 18 ft 11 kts 129°
2026-05-06 12:16 39.92252 25.23869 16 ft 11 kts 133°
2026-05-06 12:17 39.92248 25.23960 16 ft 11 kts 52°
2026-05-06 12:17 39.92318 25.24052 17 ft 17 kts 44°
2026-05-06 12:17 39.92402 25.24152 17 ft 15 kts 43°
2026-05-06 12:17 39.92419 25.24260 18 ft 13 kts 137°
2026-05-06 12:18 39.92402 25.24273 17 ft 0 kts 153°
2026-05-06 12:18 39.92385 25.24284 18 ft 9 kts 153°
2026-05-06 12:18 39.92312 25.24326 16 ft 12 kts 166°
2026-05-06 12:18 39.92241 25.24281 14 ft 14 kts 223°
2026-05-06 12:19 39.92062 25.24066 14 ft 68 kts 223°
2026-05-06 12:19 39.91562 25.23458 17 ft 126 kts 223°
2026-05-06 12:19 39.90806 25.22554 63 ft 163 kts 223°
2026-05-06 12:19 39.90021 25.21553 683 ft 155 kts 223°
2026-05-06 12:20 39.89224 25.20589 1197 ft 157 kts 222°
2026-05-06 12:20 39.88412 25.19626 1682 ft 160 kts 222°
2026-05-06 12:20 39.87543 25.18595 1932 ft 179 kts 222°
2026-05-06 12:20 39.86568 25.17435 2094 ft 200 kts 222°
2026-05-06 12:21 39.85486 25.16142 2222 ft 224 kts 222°
2026-05-06 12:21 39.84275 25.14693 2474 ft 249 kts 221°
2026-05-06 12:21 39.82734 25.13565 2944 ft 263 kts 190°
2026-05-06 12:21 39.80904 25.13679 3671 ft 267 kts 168°
2026-05-06 12:22 39.79082 25.14225 4497 ft 270 kts 165°
2026-05-06 12:22 39.77256 25.14858 5304 ft 273 kts 164°
2026-05-06 12:22 39.75415 25.15505 6093 ft 276 kts 164°
2026-05-06 12:22 39.73529 25.16007 6869 ft 279 kts 177°
2026-05-06 12:23 39.71596 25.15674 7605 ft 283 kts 195°
2026-05-06 12:23 39.69704 25.14946 8359 ft 286 kts 196°
2026-05-06 12:23 39.67790 25.14191 9098 ft 289 kts 196°
2026-05-06 12:23 39.65856 25.13423 9815 ft 292 kts 196°
2026-05-06 12:24 39.63890 25.12643 10348 ft 303 kts 196°
2026-05-06 12:24 39.61795 25.11814 10508 ft 326 kts 196°
2026-05-06 12:24 39.59561 25.10939 10824 ft 341 kts 196°
2026-05-06 12:24 39.57267 25.10041 11432 ft 347 kts 196°
2026-05-06 12:25 39.54945 25.09131 12091 ft 351 kts 197°
2026-05-06 12:25 39.52595 25.08209 12721 ft 355 kts 197°
2026-05-06 12:25 39.50220 25.07275 13377 ft 357 kts 197°
2026-05-06 12:25 39.47836 25.06337 14063 ft 359 kts 197°
2026-05-06 12:26 39.45438 25.05395 14695 ft 362 kts 197°
2026-05-06 12:26 39.43015 25.04446 15318 ft 365 kts 197°
2026-05-06 12:26 39.40570 25.03492 15891 ft 369 kts 197°
2026-05-06 12:26 39.38100 25.02530 16466 ft 372 kts 197°
2026-05-06 12:27 39.35611 25.01559 17016 ft 376 kts 197°
2026-05-06 12:27 39.33093 25.00576 17552 ft 380 kts 197°
2026-05-06 12:27 39.30553 24.99587 18071 ft 383 kts 198°
2026-05-06 12:27 39.27989 24.98587 18591 ft 386 kts 198°
2026-05-06 12:28 39.25404 24.97579 19101 ft 389 kts 198°
2026-05-06 12:28 39.22801 24.96565 19600 ft 392 kts 198°
2026-05-06 12:28 39.20215 24.95559 20075 ft 395 kts 198°
2026-05-06 12:28 39.17538 24.94519 20550 ft 398 kts 198°
2026-05-06 12:29 39.14915 24.93502 21006 ft 401 kts 198°
2026-05-06 12:29 39.12199 24.92450 21473 ft 403 kts 198°
2026-05-06 12:29 39.09501 24.91404 21926 ft 406 kts 198°
2026-05-06 12:29 39.06789 24.90354 22368 ft 409 kts 198°
2026-05-06 12:30 39.04094 24.89313 22786 ft 411 kts 198°
2026-05-06 12:30 39.01344 24.88250 23199 ft 414 kts 198°
2026-05-06 12:30 38.98579 24.87180 23606 ft 416 kts 198°
2026-05-06 12:30 38.95796 24.86107 24002 ft 419 kts 198°
2026-05-06 12:31 38.93004 24.85031 24422 ft 420 kts 198°
2026-05-06 12:31 38.90197 24.83949 24823 ft 422 kts 198°
2026-05-06 12:31 38.87382 24.82868 25210 ft 424 kts 198°
2026-05-06 12:31 38.84549 24.81784 25576 ft 426 kts 198°
2026-05-06 12:32 38.81702 24.80694 25938 ft 428 kts 199°
2026-05-06 12:32 38.78844 24.79597 26286 ft 430 kts 199°
2026-05-06 12:32 38.75969 24.78493 26621 ft 432 kts 199°
2026-05-06 12:32 38.73080 24.77385 26964 ft 434 kts 199°
2026-05-06 12:33 38.70179 24.76275 27278 ft 436 kts 198°
2026-05-06 12:33 38.67262 24.75161 27599 ft 438 kts 199°
2026-05-06 12:33 38.64332 24.74042 27912 ft 440 kts 199°
2026-05-06 12:33 38.61390 24.72919 28218 ft 442 kts 199°
2026-05-06 12:34 38.58439 24.71794 28513 ft 444 kts 199°
2026-05-06 12:34 38.55469 24.70663 28806 ft 446 kts 199°
2026-05-06 12:34 38.52493 24.69530 29089 ft 448 kts 199°
2026-05-06 12:34 38.49499 24.68394 29364 ft 449 kts 199°
2026-05-06 12:35 38.46501 24.67258 29648 ft 450 kts 199°
2026-05-06 12:35 38.43494 24.66116 29920 ft 451 kts 199°
2026-05-06 12:35 38.40483 24.64971 30033 ft 448 kts 198°
2026-05-06 12:35 38.37546 24.63857 30040 ft 436 kts 198°
2026-05-06 12:36 38.31781 24.61673 30041 ft 430 kts 199°
2026-05-06 12:36 38.26086 24.59513 30041 ft 430 kts 198°
2026-05-06 12:37 38.20336 24.57446 30043 ft 431 kts 192°
2026-05-06 12:37 38.14334 24.57338 30040 ft 436 kts 172°
2026-05-06 12:38 38.08503 24.59570 30038 ft 439 kts 163°
2026-05-06 12:38 38.02715 24.62036 30029 ft 439 kts 163°
2026-05-06 12:39 37.96920 24.64481 30036 ft 439 kts 163°
2026-05-06 12:39 37.91126 24.66922 30032 ft 439 kts 163°
2026-05-06 12:40 37.85327 24.69359 30038 ft 439 kts 164°
2026-05-06 12:40 37.79531 24.71797 30031 ft 439 kts 163°
2026-05-06 12:41 37.73734 24.74235 30027 ft 439 kts 163°
2026-05-06 12:41 37.67939 24.76674 30036 ft 439 kts 163°
2026-05-06 12:42 37.62142 24.79103 30032 ft 439 kts 164°
2026-05-06 12:42 37.56343 24.81524 30029 ft 439 kts 164°
2026-05-06 12:43 37.50547 24.83947 30027 ft 439 kts 164°
2026-05-06 12:43 37.44751 24.86365 30031 ft 439 kts 164°
2026-05-06 12:44 37.38953 24.88780 30027 ft 439 kts 164°
2026-05-06 12:44 37.33155 24.91187 30033 ft 439 kts 164°
2026-05-06 12:45 37.27356 24.93584 30030 ft 439 kts 164°
2026-05-06 12:46 37.18663 24.97188 30026 ft 439 kts 164°
2026-05-06 12:46 37.12870 24.99581 30029 ft 438 kts 164°
2026-05-06 12:47 37.07078 25.01970 30032 ft 438 kts 164°
2026-05-06 12:47 37.01288 25.04359 30017 ft 438 kts 164°
2026-05-06 12:48 36.95533 25.06725 30021 ft 438 kts 164°
2026-05-06 12:48 36.89741 25.09098 30017 ft 438 kts 164°
2026-05-06 12:49 36.83956 25.11472 30017 ft 438 kts 164°
2026-05-06 12:49 36.78160 25.13839 30013 ft 438 kts 164°
2026-05-06 12:50 36.72368 25.16198 30020 ft 438 kts 164°
2026-05-06 12:50 36.66586 25.18550 29796 ft 434 kts 165°
2026-05-06 12:50 36.63725 25.19715 29546 ft 431 kts 165°
2026-05-06 12:51 36.60883 25.20872 29295 ft 429 kts 165°
2026-05-06 12:51 36.58053 25.22026 29040 ft 426 kts 165°
2026-05-06 12:51 36.55249 25.23168 28585 ft 422 kts 165°
2026-05-06 12:51 36.52463 25.24301 28061 ft 420 kts 165°
2026-05-06 12:52 36.49697 25.25425 27548 ft 417 kts 165°
2026-05-06 12:52 36.46949 25.26537 27043 ft 414 kts 165°
2026-05-06 12:52 36.44225 25.27637 26548 ft 410 kts 165°
2026-05-06 12:52 36.41519 25.28726 26048 ft 407 kts 165°
2026-05-06 12:53 36.38840 25.29807 25591 ft 403 kts 165°
2026-05-06 12:53 36.36188 25.30878 25131 ft 399 kts 164°
2026-05-06 12:53 36.33558 25.31943 24665 ft 395 kts 165°
2026-05-06 12:53 36.30959 25.32998 24205 ft 391 kts 164°
2026-05-06 12:54 36.28386 25.34041 23754 ft 388 kts 164°
2026-05-06 12:54 36.25830 25.35070 23292 ft 384 kts 164°
2026-05-06 12:54 36.23298 25.36085 22828 ft 381 kts 164°
2026-05-06 12:54 36.20784 25.37093 22370 ft 378 kts 164°
2026-05-06 12:55 36.18293 25.38093 21911 ft 375 kts 164°
2026-05-06 12:55 36.15818 25.39089 21449 ft 373 kts 164°
2026-05-06 12:55 36.13358 25.40078 20981 ft 371 kts 164°
2026-05-06 12:55 36.10946 25.41045 20520 ft 368 kts 164°
2026-05-06 12:56 36.08482 25.42036 20046 ft 366 kts 164°
2026-05-06 12:56 36.06097 25.43000 19580 ft 365 kts 163°
2026-05-06 12:56 36.03692 25.43971 19120 ft 363 kts 163°
2026-05-06 12:56 36.01299 25.44937 18664 ft 361 kts 164°
2026-05-06 12:57 35.98922 25.45897 18218 ft 358 kts 164°
2026-05-06 12:57 35.96561 25.46848 17763 ft 356 kts 163°
2026-05-06 12:57 35.94209 25.47792 17318 ft 354 kts 163°
2026-05-06 12:57 35.91870 25.48728 16866 ft 352 kts 163°
2026-05-06 12:58 35.89543 25.49658 16428 ft 351 kts 163°
2026-05-06 12:58 35.87230 25.50584 15997 ft 349 kts 163°
2026-05-06 12:58 35.84931 25.51507 15561 ft 347 kts 163°
2026-05-06 12:58 35.82643 25.52426 15122 ft 345 kts 163°
2026-05-06 12:59 35.80365 25.53340 14699 ft 343 kts 163°
2026-05-06 12:59 35.78102 25.54245 14277 ft 341 kts 163°
2026-05-06 12:59 35.75848 25.55145 13834 ft 340 kts 163°
2026-05-06 12:59 35.73602 25.56042 13404 ft 338 kts 163°
2026-05-06 13:00 35.71371 25.56935 12970 ft 337 kts 162°
2026-05-06 13:00 35.69237 25.58104 12536 ft 336 kts 150°
2026-05-06 13:00 35.67345 25.59783 12097 ft 335 kts 141°
2026-05-06 13:00 35.66149 25.60977 11805 ft 334 kts 141°
2026-05-06 13:01 35.64343 25.62767 11349 ft 333 kts 141°
2026-05-06 13:01 35.62538 25.64536 10913 ft 331 kts 143°
2026-05-06 13:01 35.60508 25.65783 10511 ft 326 kts 168°
2026-05-06 13:01 35.58295 25.65747 10228 ft 315 kts 197°
2026-05-06 13:02 35.56407 25.64541 10101 ft 301 kts 222°
2026-05-06 13:02 35.55158 25.62553 9906 ft 291 kts 242°
2026-05-06 13:02 35.54211 25.60366 9555 ft 292 kts 242°
2026-05-06 13:02 35.53258 25.58156 9151 ft 291 kts 242°
2026-05-06 13:03 35.52315 25.55967 8759 ft 290 kts 242°
2026-05-06 13:03 35.51365 25.53774 8307 ft 291 kts 241°
2026-05-06 13:03 35.50412 25.51584 7919 ft 290 kts 241°
2026-05-06 13:03 35.49467 25.49417 7398 ft 287 kts 241°
2026-05-06 13:04 35.48528 25.47263 6835 ft 285 kts 241°
2026-05-06 13:04 35.47599 25.45129 6276 ft 283 kts 241°
2026-05-06 13:04 35.46676 25.43021 5651 ft 279 kts 239°
2026-05-06 13:04 35.45387 25.41327 5200 ft 269 kts 209°
2026-05-06 13:05 35.43658 25.40682 5026 ft 256 kts 179°
2026-05-06 13:05 35.41979 25.41138 4887 ft 243 kts 152°
2026-05-06 13:05 35.40525 25.42121 4763 ft 236 kts 150°
2026-05-06 13:05 35.39103 25.43098 4636 ft 234 kts 150°
2026-05-06 13:06 35.37657 25.43936 4539 ft 225 kts 168°
2026-05-06 13:06 35.36178 25.43680 4399 ft 217 kts 209°
2026-05-06 13:06 35.35191 25.42340 4082 ft 218 kts 242°
2026-05-06 13:06 35.34530 25.40673 3781 ft 216 kts 244°
2026-05-06 13:07 35.33911 25.39036 3458 ft 206 kts 244°
2026-05-06 13:07 35.33332 25.37484 3172 ft 195 kts 245°
2026-05-06 13:07 35.32949 25.35949 2977 ft 184 kts 258°
2026-05-06 13:07 35.32844 25.34422 2738 ft 177 kts 270°
2026-05-06 13:08 35.32936 25.32928 2487 ft 175 kts 274°
2026-05-06 13:08 35.33039 25.31447 2221 ft 175 kts 274°
2026-05-06 13:08 35.33143 25.29964 1956 ft 175 kts 274°
2026-05-06 13:08 35.33248 25.28490 1694 ft 172 kts 274°
2026-05-06 13:09 35.33349 25.27064 1460 ft 166 kts 274°
2026-05-06 13:09 35.33444 25.25669 1198 ft 163 kts 274°
2026-05-06 13:09 35.33536 25.24328 957 ft 154 kts 274°
2026-05-06 13:09 35.33627 25.23044 728 ft 150 kts 275°
2026-05-06 13:10 35.33717 25.21781 503 ft 148 kts 275°
2026-05-06 13:10 35.33809 25.20529 288 ft 147 kts 275°
2026-05-06 13:10 35.33893 25.19288 146 ft 146 kts 274°
2026-05-06 13:10 35.33972 25.18071 93 ft 134 kts 275°
2026-05-06 13:11 35.34026 25.17268 90 ft 49 kts 274°
2026-05-06 13:11 35.33984 25.17078 90 ft 9 kts 239°
2026-05-06 13:11 35.33980 25.17069 90 ft 0 kts 238°
2026-05-06 13:14 35.33954 25.17047 90 ft 5 kts 199°
2026-05-06 13:14 35.33933 25.17047 90 ft 6 kts 171°
2026-05-06 13:14 35.33904 25.17087 92 ft 6 kts 102°
2026-05-06 13:15 35.33918 25.17132 90 ft 7 kts 59°
2026-05-06 13:15 35.33933 25.17183 90 ft 6 kts 85°
2026-05-06 13:15 35.33934 25.17227 91 ft 5 kts 92°
2026-05-06 13:15 35.33932 25.17265 91 ft 7 kts 96°
2026-05-06 13:16 35.33924 25.17365 91 ft 13 kts 95°
2026-05-06 13:16 35.33914 25.17472 91 ft 12 kts 101°
2026-05-06 13:16 35.33855 25.17501 90 ft 9 kts 184°
2026-05-06 13:17 35.33805 25.17449 91 ft 3 kts 288°
2026-05-06 13:17 35.33806 25.17434 91 ft 0 kts 275°
2026-05-06 13:17 35.33806 25.17433 91 ft 1 kts 275°
2026-05-06 13:17 35.33810 25.17426 91 ft 0 kts 304°